Ekran

operational
NORAD ID: 13056 Int'l Des: 1982-009 Owner: MSVYAZ Country: SU
HEOCIRCULAR

关于 Ekran

正在加载描述...

实时位置

正在加载3D地球...

即将过境

高度历史

Altitude vs Time

uPlot chart will show altitude changes over time

两行轨道根数

1 13056U 82009A 26062.16964701 .00000093 00000-0 00000-0 0 9996
2 13056 7.3065 297.2524 0030539 340.4301 359.7938 0.99930028117557
Epoch: Mar 3, 2026 • Age: 39 hours

当前状态

高度 35999.5 km
速度 3.06 km/s
星下点 4.94°N, 54.11°E
发射日期 Feb 5, 1982
运行时间 44 years
类型 other

技术详情

分类 Payload
质量 2000.00 kg
干质量 1850.00 kg
总质量 2000.00 kg
长度 5.50 m
直径 2.50 m
跨度 9.00 m
形状 Cyl + 2 Pan + Plate
制造商 NPOPM
平台类型 Ekran
阶段状态 In Orbit
所有者/国家 MSVYAZ/SU

大型星座

Loading constellations...